Back to catalog

AIRSAT-02

AliveScienceSSO
NORAD 61239·PAYLOAD·🇨🇳 China
This satellite name has not been confirmed by official sources yet.

Launched Sep 24, 2024 from Jiuquan Satellite Launch Center

Loading…

Next Passes (next 24 hours)

TLE

FreshSource: Space-Track

Epoch: Sep 14, 2026, 14:56 UTC

1 61239U 24174B   26257.62243049  .00003170  00000-0  19451-3 0  9995
2 61239  97.4530 258.6600 0020343 346.1435  13.9234 15.10664357108892

Track AIRSAT-02 in real time with AllMySat

Download on the App Store